This is the latest recevied weather packets stored in our database for station/object K3JSE-2. If no packets are shown the sender has not sent any weather packets the latest 10 day(s).
| Time | Temp. | Humidity | Pressure | Rain* | Wind** | Luminosity | Snow |
|---|---|---|---|---|---|---|---|
| 1777837501 | 14.44° C | 38% | 1013.7 hPa | 0 mm | - | - | - |
| 1777837233 | 13.89° C | 37% | 1013.6 hPa | 0 mm | - | - | - |
| 1777836971 | 14.44° C | 36% | 1013.7 hPa | 0 mm | - | - | - |
| 1777836938 | 14.44° C | 36% | 1013.8 hPa | 0 mm | - | - | - |
| 1777836658 | 15° C | 35% | 1013.7 hPa | 0 mm | - | - | - |
| 1777836363 | 14.44° C | 39% | 1013.8 hPa | 0 mm | - | - | - |
| 1777836250 | 13.89° C | 39% | 1013.7 hPa | 0 mm | - | - | - |
| 1777836118 | 13.33° C | 36% | 1013.8 hPa | 0 mm | - | - | - |
| 1777835838 | 13.33° C | 35% | 1013.8 hPa | 0 mm | - | - | - |
| 1777835593 | 13.89° C | 35% | 1014 hPa | 0 mm | - | - | - |
| 1777835298 | 13.89° C | 38% | 1014 hPa | 0 mm | - | - | - |
| 1777835033 | 13.89° C | 35% | 1014 hPa | 0 mm | - | - | - |
| 1777834875 | 13.33° C | 38% | 1014 hPa | 0 mm | - | - | - |
| 1777834785 | 13.33° C | 37% | 1014 hPa | 0 mm | - | - | - |
| 1777834508 | 13.33° C | 42% | 1014.1 hPa | 0 mm | - | - | - |
| 1777834253 | 12.78° C | 41% | 1014.1 hPa | 0 mm | - | - | - |
| 1777834013 | 13.33° C | 34% | 1014.1 hPa | 0 mm | - | - | - |
| 1777833723 | 13.33° C | 36% | 1014.1 hPa | 0 mm | - | - | - |
| 1777833441 | 13.33° C | 39% | 1014.2 hPa | 0 mm | - | - | - |
| 1777833177 | 13.33° C | 36% | 1014.3 hPa | 0 mm | - | - | - |
| 1777832923 | 13.33° C | 37% | 1014.2 hPa | 0 mm | - | - | - |
| 1777832801 | 13.33° C | 37% | 1014.2 hPa | 0 mm | - | - | - |
| 1777832633 | 13.33° C | 35% | 1014.2 hPa | 0 mm | - | - | - |
| 1777832368 | 13.33° C | 35% | 1014.3 hPa | 0 mm | - | - | - |
| 1777832101 | 12.78° C | 38% | 1014.3 hPa | 0 mm | - | - | - |
* Rain latest hour (hover to see other rain measurements)
** Current wind speed in m/s (hover to see current wind gust speed)